Location: Lafig�re
(44.4503°N, 4.0357°E)
Time: 15:38:39
(UTC+00:00)

Transit 2A Rocket - Pass Details

Date: 26 January 2021
Orbit: 594 x 908 km, 66.7° (Epoch: 06 March)

Event Time Altitude Azimuth Distance (km) Brightness Sun altitude
Rises 11:11:26 0° 203° (SSW) 3,357 9.1 26.1°
Reaches altitude 10° 11:13:58 10° 201° (SSW) 2,381 8.6 26.2°
Maximum altitude 11:19:24 70° 119° (ESE) 804 5.8 26.4°
Drops below altitude 10° 11:24:22 10° 36° (NE) 2,185 7.1 26.5°
Sets 11:26:36 0° 35° (NE) 3,059 7.7 26.6°
